Simultaneous Nadir Overpasses (SNOs) Predictions

Prediction of SNOs between GOES-16 and NOAA-20 Satellite Orbit:

Table of predicted SNOs for the next 14.0 days since TLE Epoch: 11/2/2024
Index Date Time (GOES-16) GOES-16 Lat,Lon NOAA-20 Lat,Lon Distance(km) Time Diff (sec)
1 11/02/2024 18:31:39 -0.02, -75.21 -0.46, -77.28 235.01 80
2 11/03/2024 18:15:33 -0.03, -75.21 0.53, -72.74 281.74 80
3 11/05/2024 06:34:40 0.02, -75.20 0.63, -78.01 319.83 80
4 11/06/2024 06:18:35 0.02, -75.20 -0.37, -73.48 196.98 80
5 11/07/2024 18:37:50 -0.01, -75.22 -0.83, -78.78 405.61 80
6 11/08/2024 18:21:45 -0.01, -75.23 0.18, -74.24 111.65 80
7 11/10/2024 06:43:31 0.01, -75.23 1.00, -79.51 488.58 80
8 11/11/2024 06:22:06 0.01, -75.24 -0.02, -74.97 29.25 80
9 11/13/2024 18:25:15 -0.01, -75.27 -0.12, -75.75 53.89 80
10 11/14/2024 18:09:10 -0.01, -75.29 0.91, -71.22 464.39 80
